QPF
0.00 0.00 0.01 0.01 0.01 0.01 0.01 0.01 0.02 0.02 0.02 0.02 0.02 0.01 0.02 0.03 0.03 0.03 0.03 0.02 0.02 0.02 0.03 0.03 0.03 0.03 0.04 0.05 0.06 0.06 0.06 0.07 0.07 0.06 0.05 0.05 0.07 0.06 0.06 0.06 0.05 0.05 0.05
0.00 0.00 0.01 0.01 0.01 0.01 0.01 0.01 0.01 0.01 0.01 0.01 0.01 0.01 0.01 0.02 0.03 0.02 0.02 0.02 0.02 0.02 0.03 0.04 0.03 0.03 0.04 0.05 0.06 0.07 0.07 0.06 0.05 0.04 0.04 0.05 0.07 0.06 0.05 0.07 0.07 0.06 0.06
0.00 0.01 0.01 0.01 0.01 0.01 0.01 0.01 0.01 0.01 0.01 0.01 0.01 0.01 0.01 0.01 0.02 0.03 0.03 0.03 0.02 0.02 0.04 0.05 0.04 0.04 0.05 0.05 0.05 0.05 0.04 0.04 0.03 0.03 0.04 0.05 0.08 0.08 0.06 0.06 0.05 0.05 0.06
0.00 0.01 0.01 0.01 0.01 0.02 0.02 0.02 0.01 0.01 0.01 0.02 0.02 0.02 0.02 0.03 0.03 0.03 0.04 0.04 0.03 0.04 0.04 0.04 0.04 0.04 0.04 0.04 0.03 0.03 0.03 0.02 0.03 0.03 0.03 0.05 0.08 0.10 0.08 0.06 0.06 0.05 0.05
0.00 0.01 0.01 0.01 0.01 0.02 0.02 0.03 0.02 0.02 0.02 0.03 0.03 0.03 0.03 0.04 0.05 0.05 0.05 0.04 0.04 0.04 0.05 0.03 0.03 0.03 0.03 0.02 0.02 0.02 0.02 0.02 0.03 0.03 0.04 0.04 0.05 0.07 0.07 0.06 0.06 0.06 0.06
0.01 0.01 0.01 0.02 0.02 0.03 0.03 0.03 0.04 0.04 0.03 0.03 0.04 0.05 0.05 0.05 0.06 0.05 0.05 0.05 0.04 0.04 0.04 0.04 0.02 0.02 0.02 0.01 0.01 0.02 0.02 0.03 0.03 0.03 0.03 0.03 0.03 0.04 0.04 0.05 0.05 0.05 0.05
0.02 0.02 0.01 0.02 0.03 0.04 0.05 0.05 0.04 0.05 0.05 0.04 0.04 0.05 0.06 0.07 0.07 0.06 0.06 0.05 0.05 0.04 0.04 0.03 0.02 0.02 0.02 0.01 0.01 0.01 0.01 0.02 0.02 0.02 0.02 0.02 0.02 0.02 0.02 0.03 0.04 0.04 0.04
0.01 0.02 0.02 0.02 0.03 0.04 0.04 0.05 0.05 0.05 0.05 0.05 0.05 0.05 0.05 0.06 0.06 0.06 0.06 0.06 0.06 0.05 0.04 0.03 0.02 0.02 0.01 0.01 0.01 0.01 0.01 0.01 0.01 0.01 0.01 0.01 0.01 0.01 0.02 0.03 0.04 0.04 0.04
0.01 0.01 0.01 0.01 0.02 0.02 0.03 0.04 0.04 0.04 0.04 0.05 0.05 0.04 0.04 0.05 0.05 0.05 0.05 0.05 0.05 0.05 0.04 0.03 0.02 0.01 0.01 0.01 0.01 0.01 0.01 0.01 0.01 0.01 0.01 0.02 0.02 0.02 0.02 0.02 0.03 0.03 0.04
0.01 0.01 0.01 0.01 0.01 0.02 0.02 0.02 0.03 0.03 0.03 0.04 0.04 0.04 0.04 0.03 0.03 0.04 0.04 0.03 0.03 0.03 0.02 0.02 0.02 0.01 0.01 0.01 0.01 0.01 0.01 0.01 0.01 0.01 0.01 0.01 0.01 0.02 0.02 0.02 0.03 0.03 0.03
0.02 0.01 0.01 0.01 0.01 0.01 0.02 0.02 0.02 0.02 0.02 0.03 0.03 0.04 0.04 0.03 0.03 0.02 0.02 0.01 0.01 0.01 0.01 0.01 0.01 0.01 0.01 0.01 0.01 0.01 0.01 0.01 0.01 0.01 0.01 0.01 0.01 0.01 0.02 0.02 0.02 0.03 0.04
0.02 0.01 0.01 0.02 0.02 0.02 0.02 0.02 0.01 0.01 0.02 0.02 0.02 0.03 0.03 0.02 0.02 0.02 0.01 0.01 0.01 0.01 0.01 0.00 0.01 0.01 0.01 0.01 0.01 0.01 0.01 0.02 0.01 0.01 0.01 0.01 0.01 0.01 0.01 0.02 0.02 0.03 0.03
0.03 0.02 0.01 0.02 0.02 0.02 0.02 0.02 0.02 0.02 0.02 0.02 0.02 0.02 0.02 0.02 0.01 0.01 0.01 0.01 0.01 0.01 0.00 0.01 0.01 0.01 0.01 0.01 0.01 0.01 0.01 0.01 0.01 0.02 0.02 0.02 0.01 0.01 0.01 0.01 0.02 0.02 0.02
0.02 0.02 0.02 0.02 0.02 0.02 0.02 0.02 0.02 0.02 0.02 0.02 0.02 0.02 0.02 0.01 0.01 0.01 0.01 0.01 0.01 0.00 0.01 0.01 0.01 0.01 0.01 0.01 0.01 0.01 0.01 0.01 0.01 0.01 0.01 0.01 0.01 0.01 0.01 0.01 0.01 0.01 0.01
0.02 0.02 0.02 0.02 0.02 0.02 0.02 0.02 0.02 0.02 0.02 0.03 0.03 0.02 0.02 0.01 0.01 0.01 0.01 0.01 0.00 0.00 0.01 0.01 0.01 0.01 0.01 0.01 0.01 0.01 0.01 0.01 0.01 0.01 0.01 0.01 0.01 0.01 0.01 0.01 0.01 0.01 0.01
0.03 0.03 0.03 0.02 0.02 0.01 0.01 0.02 0.02 0.02 0.02 0.02 0.02 0.02 0.02 0.02 0.01 0.01 0.01 0.01 0.01 0.01 0.01 0.01 0.01 0.01 0.01 0.01 0.01 0.01 0.01 0.01 0.01 0.01 0.01 0.01 0.01 0.01 0.01 0.01 0.01 0.01 0.01
0.03 0.03 0.03 0.02 0.02 0.02 0.01 0.02 0.02 0.02 0.02 0.02 0.02 0.01 0.01 0.02 0.02 0.02 0.01 0.01 0.01 0.01 0.01 0.01 0.01 0.01 0.01 0.01 0.01 0.01 0.01 0.01 0.01 0.01 0.01 0.01 0.01 0.01 0.02 0.02 0.02 0.02 0.02
0.03 0.03 0.02 0.02 0.02 0.02 0.02 0.02 0.02 0.02 0.02 0.02 0.02 0.01 0.01 0.01 0.02 0.02 0.02 0.02 0.02 0.01 0.01 0.01 0.01 0.01 0.01 0.01 0.01 0.01 0.01 0.01 0.01 0.01 0.01 0.01 0.01 0.01 0.01 0.01 0.01 0.02 0.02
0.03 0.03 0.02 0.02 0.02 0.02 0.03 0.03 0.03 0.03 0.03 0.02 0.02 0.01 0.01 0.01 0.01 0.02 0.03 0.02 0.02 0.02 0.01 0.01 0.01 0.01 0.01 0.01 0.01 0.01 0.01 0.01 0.01 0.01 0.01 0.01 0.01 0.01 0.01 0.01 0.01 0.01 0.02
0.04 0.04 0.03 0.03 0.03 0.03 0.03 0.03 0.03 0.03 0.03 0.03 0.03 0.02 0.02 0.01 0.02 0.02 0.03 0.03 0.03 0.02 0.02 0.02 0.01 0.01 0.01 0.01 0.01 0.01 0.01 0.01 0.01 0.01 0.01 0.01 0.01 0.01 0.01 0.01 0.01 0.01 0.02
0.05 0.05 0.04 0.03 0.03 0.03 0.03 0.03 0.03 0.03 0.03 0.03 0.02 0.02 0.02 0.02 0.02 0.02 0.03 0.03 0.03 0.02 0.02 0.02 0.02 0.02 0.01 0.01 0.01 0.01 0.01 0.02 0.02 0.01 0.01 0.01 0.02 0.02 0.01 0.01 0.01 0.02 0.02
0.03 0.04 0.03 0.03 0.03 0.03 0.03 0.02 0.02 0.03 0.03 0.02 0.02 0.02 0.02 0.02 0.02 0.02 0.02 0.02 0.02 0.02 0.02 0.02 0.02 0.02 0.02 0.02 0.02 0.02 0.01 0.01 0.01 0.02 0.02 0.01 0.01 0.01 0.01 0.01 0.01 0.02 0.02
0.03 0.03 0.03 0.03 0.03 0.03 0.02 0.02 0.02 0.02 0.02 0.02 0.01 0.01 0.01 0.01 0.02 0.02 0.03 0.03 0.03 0.02 0.02 0.02 0.02 0.02 0.02 0.02 0.02 0.02 0.02 0.02 0.02 0.02 0.02 0.02 0.01 0.01 0.02 0.02 0.02 0.02 0.02
0.03 0.03 0.03 0.03 0.02 0.02 0.02 0.02 0.02 0.02 0.02 0.02 0.01 0.01 0.01 0.01 0.02 0.02 0.02 0.02 0.02 0.02 0.02 0.03 0.03 0.02 0.02 0.02 0.02 0.02 0.02 0.02 0.03 0.03 0.02 0.02 0.02 0.02 0.02 0.02 0.02 0.02 0.02
0.03 0.03 0.03 0.03 0.02 0.02 0.02 0.02 0.02 0.02 0.02 0.02 0.01 0.01 0.01 0.02 0.02 0.02 0.02 0.02 0.02 0.02 0.02 0.02 0.03 0.03 0.02 0.02 0.02 0.02 0.03 0.03 0.03 0.03 0.03 0.03 0.02 0.02 0.02 0.02 0.02 0.02 0.02
0.03 0.03 0.03 0.02 0.02 0.01 0.02 0.02 0.02 0.02 0.03 0.03 0.02 0.02 0.02 0.02 0.02 0.02 0.02 0.02 0.02 0.02 0.02 0.02 0.02 0.02 0.02 0.03 0.02 0.03 0.03 0.03 0.03 0.03 0.03 0.04 0.03 0.03 0.03 0.03 0.02 0.02 0.02
MSLP
1004.41 1004.74 1005.10 1005.50 1005.93 1006.41 1006.94 1007.54 1008.21 1008.93 1009.70 1010.50 1011.30 1012.10 1012.87 1013.62 1014.33 1015.01 1015.67 1016.31 1016.94 1017.56 1018.18 1018.80 1019.45 1020.12 1020.84 1021.61 1022.46 1023.37 1024.34 1025.34 1026.33 1027.28 1028.13 1028.85 1029.41 1029.79 1030.00 1030.07 1030.00 1029.84 1029.63
1004.35 1004.65 1005.00 1005.38 1005.80 1006.28 1006.81 1007.41 1008.07 1008.78 1009.54 1010.31 1011.10 1011.87 1012.63 1013.37 1014.10 1014.82 1015.53 1016.24 1016.96 1017.67 1018.38 1019.09 1019.79 1020.50 1021.23 1021.99 1022.79 1023.64 1024.53 1025.44 1026.36 1027.23 1028.04 1028.73 1029.27 1029.66 1029.89 1029.97 1029.93 1029.77 1029.55
1004.38 1004.65 1004.97 1005.32 1005.73 1006.19 1006.72 1007.31 1007.96 1008.67 1009.41 1010.18 1010.94 1011.71 1012.46 1013.20 1013.94 1014.69 1015.45 1016.23 1017.02 1017.82 1018.62 1019.41 1020.19 1020.95 1021.71 1022.47 1023.24 1024.03 1024.85 1025.67 1026.50 1027.29 1028.03 1028.67 1029.18 1029.56 1029.78 1029.87 1029.82 1029.67 1029.44
1004.50 1004.73 1005.01 1005.32 1005.70 1006.15 1006.66 1007.26 1007.92 1008.63 1009.38 1010.15 1010.92 1011.69 1012.44 1013.20 1013.96 1014.73 1015.53 1016.37 1017.22 1018.09 1018.96 1019.82 1020.66 1021.47 1022.25 1023.01 1023.76 1024.50 1025.25 1025.99 1026.73 1027.44 1028.10 1028.67 1029.14 1029.49 1029.70 1029.77 1029.73 1029.58 1029.34
1004.68 1004.87 1005.11 1005.39 1005.75 1006.18 1006.69 1007.30 1007.98 1008.72 1009.49 1010.29 1011.09 1011.89 1012.67 1013.45 1014.24 1015.04 1015.87 1016.74 1017.64 1018.55 1019.46 1020.37 1021.24 1022.07 1022.86 1023.61 1024.32 1025.02 1025.70 1026.37 1027.02 1027.65 1028.23 1028.73 1029.15 1029.46 1029.65 1029.71 1029.66 1029.51 1029.28
1004.91 1005.08 1005.28 1005.54 1005.88 1006.31 1006.84 1007.47 1008.19 1008.97 1009.80 1010.65 1011.50 1012.35 1013.17 1014.00 1014.82 1015.65 1016.51 1017.40 1018.31 1019.23 1020.16 1021.06 1021.93 1022.75 1023.52 1024.24 1024.91 1025.55 1026.17 1026.76 1027.33 1027.88 1028.39 1028.83 1029.19 1029.46 1029.63 1029.68 1029.63 1029.49 1029.25
1005.21 1005.36 1005.55 1005.81 1006.15 1006.60 1007.15 1007.82 1008.58 1009.42 1010.31 1011.23 1012.15 1013.05 1013.94 1014.81 1015.68 1016.55 1017.43 1018.32 1019.23 1020.13 1021.03 1021.91 1022.74 1023.51 1024.23 1024.90 1025.51 1026.08 1026.63 1027.15 1027.65 1028.12 1028.56 1028.94 1029.25 1029.49 1029.63 1029.67 1029.62 1029.48 1029.26
1005.61 1005.75 1005.95 1006.22 1006.59 1007.06 1007.66 1008.37 1009.18 1010.08 1011.03 1012.01 1012.99 1013.96 1014.91 1015.84 1016.74 1017.64 1018.53 1019.42 1020.31 1021.19 1022.04 1022.85 1023.61 1024.32 1024.96 1025.55 1026.09 1026.59 1027.05 1027.50 1027.93 1028.34 1028.71 1029.04 1029.31 1029.51 1029.63 1029.67 1029.62 1029.49 1029.28
1006.10 1006.28 1006.50 1006.81 1007.21 1007.73 1008.37 1009.12 1009.98 1010.91 1011.91 1012.93 1013.96 1014.97 1015.97 1016.94 1017.88 1018.80 1019.70 1020.58 1021.45 1022.28 1023.07 1023.81 1024.49 1025.11 1025.67 1026.17 1026.63 1027.05 1027.44 1027.82 1028.18 1028.53 1028.85 1029.13 1029.36 1029.53 1029.62 1029.65 1029.60 1029.48 1029.29
1006.71 1006.93 1007.21 1007.57 1008.03 1008.59 1009.27 1010.05 1010.93 1011.89 1012.89 1013.93 1014.97 1016.00 1017.02 1018.01 1018.97 1019.90 1020.80 1021.67 1022.51 1023.29 1024.03 1024.70 1025.31 1025.84 1026.31 1026.73 1027.11 1027.45 1027.78 1028.09 1028.39 1028.68 1028.95 1029.19 1029.38 1029.52 1029.60 1029.61 1029.56 1029.45 1029.27
1007.39 1007.68 1008.04 1008.46 1008.98 1009.60 1010.31 1011.11 1011.99 1012.93 1013.92 1014.93 1015.95 1016.97 1017.97 1018.95 1019.91 1020.84 1021.73 1022.59 1023.40 1024.16 1024.84 1025.46 1026.00 1026.46 1026.86 1027.21 1027.51 1027.79 1028.05 1028.31 1028.56 1028.80 1029.03 1029.22 1029.38 1029.49 1029.54 1029.54 1029.49 1029.38 1029.22
1008.10 1008.49 1008.93 1009.44 1010.02 1010.69 1011.42 1012.23 1013.09 1014.00 1014.94 1015.89 1016.86 1017.82 1018.78 1019.73 1020.66 1021.57 1022.46 1023.30 1024.09 1024.82 1025.47 1026.05 1026.53 1026.95 1027.29 1027.58 1027.83 1028.05 1028.27 1028.48 1028.69 1028.89 1029.07 1029.23 1029.35 1029.43 1029.46 1029.45 1029.38 1029.28 1029.13
1008.80 1009.28 1009.82 1010.41 1011.07 1011.77 1012.53 1013.34 1014.17 1015.03 1015.90 1016.79 1017.67 1018.57 1019.46 1020.36 1021.25 1022.13 1022.99 1023.82 1024.59 1025.30 1025.93 1026.47 1026.93 1027.30 1027.61 1027.85 1028.06 1028.25 1028.43 1028.60 1028.77 1028.94 1029.09 1029.21 1029.30 1029.35 1029.36 1029.32 1029.25 1029.14 1029.00
1009.44 1010.02 1010.65 1011.33 1012.04 1012.80 1013.58 1014.38 1015.19 1016.00 1016.81 1017.61 1018.42 1019.24 1020.06 1020.89 1021.73 1022.57 1023.40 1024.20 1024.95 1025.64 1026.25 1026.77 1027.20 1027.55 1027.82 1028.04 1028.22 1028.38 1028.53 1028.67 1028.82 1028.95 1029.07 1029.17 1029.23 1029.25 1029.24 1029.19 1029.11 1028.99 1028.85
1010.02 1010.68 1011.39 1012.14 1012.92 1013.72 1014.53 1015.33 1016.12 1016.90 1017.66 1018.40 1019.14 1019.89 1020.64 1021.41 1022.20 1022.99 1023.77 1024.54 1025.26 1025.92 1026.50 1027.00 1027.40 1027.73 1027.98 1028.17 1028.33 1028.46 1028.58 1028.70 1028.82 1028.93 1029.03 1029.10 1029.14 1029.14 1029.11 1029.05 1028.95 1028.84 1028.70
1010.57 1011.29 1012.06 1012.87 1013.70 1014.54 1015.38 1016.20 1016.99 1017.76 1018.49 1019.20 1019.89 1020.58 1021.28 1021.99 1022.72 1023.46 1024.19 1024.91 1025.58 1026.20 1026.75 1027.21 1027.58 1027.87 1028.09 1028.26 1028.39 1028.50 1028.60 1028.70 1028.80 1028.89 1028.96 1029.02 1029.04 1029.03 1028.99 1028.91 1028.81 1028.68 1028.54
1011.16 1011.92 1012.73 1013.57 1014.43 1015.31 1016.18 1017.02 1017.83 1018.60 1019.33 1020.02 1020.69 1021.35 1022.01 1022.67 1023.35 1024.03 1024.70 1025.36 1025.97 1026.53 1027.02 1027.42 1027.75 1028.00 1028.19 1028.32 1028.42 1028.51 1028.59 1028.67 1028.74 1028.82 1028.88 1028.92 1028.93 1028.91 1028.86 1028.78 1028.67 1028.54 1028.39
1011.88 1012.64 1013.45 1014.31 1015.20 1016.09 1016.98 1017.85 1018.68 1019.47 1020.21 1020.90 1021.57 1022.20 1022.83 1023.45 1024.07 1024.69 1025.29 1025.88 1026.41 1026.90 1027.31 1027.65 1027.92 1028.12 1028.26 1028.36 1028.44 1028.49 1028.55 1028.61 1028.68 1028.74 1028.79 1028.82 1028.82 1028.79 1028.73 1028.65 1028.53 1028.40 1028.25
1012.79 1013.53 1014.33 1015.17 1016.05 1016.95 1017.85 1018.73 1019.57 1020.37 1021.13 1021.83 1022.49 1023.11 1023.71 1024.29 1024.85 1025.40 1025.93 1026.42 1026.88 1027.27 1027.61 1027.88 1028.08 1028.22 1028.32 1028.38 1028.42 1028.46 1028.50 1028.54 1028.59 1028.64 1028.68 1028.70 1028.69 1028.66 1028.59 1028.50 1028.38 1028.24 1028.08
1013.93 1014.63 1015.38 1016.19 1017.04 1017.92 1018.80 1019.67 1020.52 1021.32 1022.07 1022.76 1023.41 1024.01 1024.58 1025.11 1025.61 1026.09 1026.54 1026.94 1027.30 1027.61 1027.86 1028.05 1028.19 1028.28 1028.33 1028.37 1028.38 1028.40 1028.43 1028.46 1028.49 1028.53 1028.55 1028.56 1028.54 1028.50 1028.42 1028.32 1028.19 1028.05 1027.88
1015.28 1015.92 1016.62 1017.37 1018.17 1019.00 1019.84 1020.67 1021.49 1022.26 1022.98 1023.66 1024.28 1024.84 1025.36 1025.84 1026.28 1026.68 1027.04 1027.36 1027.63 1027.86 1028.03 1028.16 1028.24 1028.29 1028.31 1028.31 1028.31 1028.32 1028.33 1028.35 1028.37 1028.38 1028.39 1028.38 1028.34 1028.28 1028.18 1028.07 1027.93 1027.77 1027.61
1016.77 1017.35 1017.98 1018.66 1019.39 1020.14 1020.92 1021.69 1022.44 1023.16 1023.83 1024.46 1025.03 1025.54 1026.01 1026.42 1026.79 1027.12 1027.40 1027.64 1027.84 1027.99 1028.10 1028.17 1028.21 1028.23 1028.23 1028.22 1028.21 1028.20 1028.20 1028.21 1028.21 1028.20 1028.18 1028.14 1028.07 1027.98 1027.86 1027.73 1027.57 1027.41 1027.24
1018.31 1018.82 1019.38 1019.98 1020.63 1021.29 1021.97 1022.65 1023.32 1023.96 1024.56 1025.11 1025.62 1026.07 1026.47 1026.82 1027.13 1027.39 1027.60 1027.77 1027.91 1028.01 1028.08 1028.11 1028.13 1028.12 1028.11 1028.09 1028.07 1028.06 1028.04 1028.02 1028.00 1027.96 1027.90 1027.82 1027.72 1027.59 1027.44 1027.28 1027.11 1026.93 1026.76
1019.79 1020.24 1020.73 1021.25 1021.80 1022.37 1022.95 1023.52 1024.09 1024.63 1025.14 1025.62 1026.05 1026.43 1026.77 1027.05 1027.30 1027.50 1027.66 1027.79 1027.88 1027.94 1027.98 1027.99 1027.99 1027.98 1027.96 1027.93 1027.90 1027.87 1027.83 1027.79 1027.72 1027.65 1027.54 1027.42 1027.27 1027.10 1026.91 1026.72 1026.53 1026.35 1026.19
1021.13 1021.53 1021.95 1022.39 1022.85 1023.32 1023.79 1024.26 1024.73 1025.17 1025.59 1025.98 1026.34 1026.65 1026.93 1027.16 1027.36 1027.51 1027.64 1027.73 1027.79 1027.83 1027.84 1027.85 1027.83 1027.81 1027.78 1027.74 1027.70 1027.64 1027.57 1027.48 1027.38 1027.25 1027.09 1026.91 1026.72 1026.51 1026.29 1026.08 1025.88 1025.70 1025.54
1022.31 1022.66 1023.01 1023.38 1023.75 1024.13 1024.50 1024.88 1025.24 1025.60 1025.93 1026.25 1026.53 1026.78 1027.00 1027.19 1027.34 1027.46 1027.56 1027.62 1027.66 1027.68 1027.69 1027.68 1027.65 1027.62 1027.57 1027.51 1027.43 1027.34 1027.23 1027.09 1026.93 1026.75 1026.54 1026.32 1026.08 1025.84 1025.60 1025.38 1025.17 1025.00 1024.87
Thickness
5539 5542 5543 5545 5545 5546 5547 5548 5548 5548 5547 5547 5547 5547 5547 5547 5548 5549 5550 5551 5552 5554 5554 5556 5556 5557 5557 5558 5559 5560 5561 5563 5562 5559 5557 5554 5554 5554 5554 5554 5554 5554 5554
5528 5530 5532 5533 5534 5536 5536 5537 5537 5537 5537 5538 5537 5537 5538 5538 5538 5539 5539 5540 5541 5543 5543 5544 5545 5546 5547 5547 5548 5549 5549 5550 5550 5549 5547 5545 5544 5544 5544 5544 5543 5542 5542
5515 5518 5520 5522 5523 5525 5525 5525 5526 5526 5527 5527 5527 5528 5528 5528 5528 5528 5529 5530 5531 5532 5533 5534 5535 5535 5536 5537 5538 5538 5538 5538 5538 5538 5536 5534 5533 5533 5533 5532 5531 5531 5530
5503 5506 5508 5511 5513 5513 5514 5514 5515 5515 5516 5516 5516 5517 5517 5517 5517 5518 5519 5519 5520 5520 5521 5522 5523 5524 5525 5526 5527 5527 5527 5526 5525 5525 5525 5523 5523 5521 5521 5521 5521 5520 5519
5490 5493 5496 5499 5500 5502 5503 5504 5504 5504 5504 5505 5505 5506 5505 5506 5507 5508 5508 5509 5509 5509 5509 5509 5510 5511 5512 5513 5514 5514 5514 5514 5514 5513 5513 5513 5512 5510 5510 5510 5510 5509 5508
5478 5481 5483 5486 5488 5491 5492 5492 5492 5492 5492 5492 5493 5494 5494 5494 5494 5495 5496 5497 5497 5497 5497 5498 5498 5499 5499 5499 5500 5501 5501 5502 5502 5502 5503 5503 5502 5501 5500 5498 5497 5497 5497
5466 5469 5470 5473 5476 5478 5480 5481 5481 5481 5480 5480 5480 5481 5482 5482 5482 5482 5483 5484 5485 5485 5486 5486 5486 5486 5486 5487 5487 5488 5488 5489 5489 5491 5492 5492 5492 5490 5489 5487 5485 5484 5484
5454 5456 5459 5461 5463 5465 5467 5468 5469 5468 5469 5469 5469 5469 5470 5469 5469 5469 5469 5470 5471 5472 5472 5473 5473 5474 5474 5474 5475 5476 5477 5477 5476 5477 5479 5479 5478 5477 5476 5474 5472 5471 5469
5441 5444 5446 5448 5450 5452 5454 5455 5456 5456 5456 5456 5457 5457 5457 5456 5455 5455 5456 5457 5458 5458 5459 5459 5460 5461 5461 5461 5462 5463 5463 5463 5462 5463 5464 5463 5462 5462 5461 5459 5458 5457 5457
5429 5431 5433 5435 5438 5440 5441 5442 5443 5443 5443 5443 5443 5444 5444 5444 5443 5443 5443 5444 5445 5445 5445 5446 5446 5447 5447 5447 5448 5450 5450 5450 5450 5450 5450 5449 5448 5448 5447 5446 5445 5444 5443
5415 5418 5420 5422 5425 5427 5428 5429 5430 5431 5431 5431 5431 5431 5431 5431 5430 5431 5431 5432 5432 5432 5433 5433 5434 5434 5434 5434 5435 5437 5437 5436 5436 5437 5437 5436 5434 5434 5433 5431 5430 5429 5428
5402 5405 5407 5409 5411 5413 5415 5416 5417 5418 5419 5419 5419 5419 5418 5418 5419 5419 5419 5419 5420 5421 5421 5421 5422 5421 5421 5421 5422 5423 5422 5422 5422 5422 5422 5422 5421 5420 5418 5417 5415 5414 5413
5390 5392 5394 5396 5398 5400 5402 5403 5404 5406 5407 5408 5408 5408 5408 5408 5408 5407 5407 5407 5407 5407 5409 5409 5409 5409 5408 5408 5409 5409 5409 5409 5410 5409 5409 5409 5408 5406 5404 5403 5402 5400 5399
5378 5380 5382 5383 5385 5387 5389 5391 5392 5394 5395 5396 5397 5397 5397 5397 5398 5398 5397 5396 5395 5394 5395 5395 5395 5395 5395 5395 5395 5395 5396 5397 5397 5397 5396 5395 5394 5392 5391 5390 5389 5388 5386
5367 5368 5370 5371 5373 5375 5377 5379 5381 5383 5384 5385 5386 5386 5387 5387 5388 5388 5387 5386 5385 5385 5383 5383 5383 5383 5384 5384 5384 5384 5383 5383 5383 5383 5383 5382 5381 5379 5378 5377 5375 5374 5373
5356 5357 5359 5360 5362 5364 5365 5366 5367 5370 5371 5372 5373 5374 5375 5376 5376 5376 5376 5375 5374 5373 5372 5373 5373 5373 5373 5374 5373 5372 5372 5371 5371 5371 5370 5369 5368 5367 5366 5364 5363 5362 5361
5345 5347 5348 5350 5352 5353 5355 5357 5358 5358 5359 5361 5362 5363 5364 5365 5365 5365 5365 5364 5363 5362 5362 5363 5363 5362 5362 5361 5361 5360 5360 5359 5359 5358 5358 5357 5356 5355 5354 5353 5351 5350 5349
5333 5335 5338 5340 5342 5344 5345 5347 5349 5350 5350 5351 5351 5352 5353 5354 5354 5355 5354 5353 5352 5351 5352 5352 5352 5351 5350 5349 5348 5348 5348 5348 5347 5347 5346 5345 5345 5344 5343 5342 5341 5339 5338
5322 5325 5327 5329 5331 5333 5335 5336 5337 5339 5340 5341 5342 5342 5342 5343 5343 5343 5343 5343 5343 5342 5342 5341 5340 5339 5338 5338 5337 5337 5336 5336 5336 5336 5335 5335 5334 5333 5332 5332 5331 5329 5327
5311 5313 5315 5318 5321 5323 5324 5326 5327 5328 5329 5331 5332 5332 5332 5332 5332 5332 5332 5332 5331 5331 5331 5331 5330 5329 5328 5327 5326 5326 5326 5326 5326 5325 5325 5325 5325 5324 5323 5322 5320 5319 5318
5300 5303 5305 5308 5310 5312 5314 5315 5317 5318 5319 5320 5321 5321 5321 5321 5322 5322 5322 5321 5321 5321 5321 5321 5320 5319 5318 5317 5316 5316 5315 5316 5316 5316 5315 5315 5315 5314 5313 5312 5311 5310 5309
5291 5293 5296 5298 5300 5302 5304 5305 5306 5308 5309 5310 5311 5311 5311 5312 5312 5312 5311 5311 5311 5311 5310 5310 5309 5309 5308 5307 5306 5306 5306 5306 5306 5305 5306 5306 5305 5304 5304 5303 5302 5301 5300
5282 5284 5286 5288 5290 5292 5293 5295 5297 5298 5299 5300 5301 5301 5301 5302 5302 5302 5301 5301 5301 5300 5300 5299 5299 5299 5298 5298 5297 5297 5298 5298 5297 5297 5296 5296 5296 5296 5295 5295 5294 5293 5293
5272 5275 5277 5279 5281 5283 5285 5286 5287 5289 5289 5290 5291 5291 5291 5291 5291 5291 5291 5291 5291 5290 5290 5290 5289 5290 5289 5289 5289 5289 5289 5289 5288 5288 5287 5287 5287 5287 5287 5286 5286 5286 5286
5263 5265 5268 5270 5272 5274 5276 5277 5278 5279 5279 5280 5280 5280 5280 5280 5281 5281 5281 5281 5281 5281 5280 5280 5280 5280 5281 5281 5281 5281 5281 5281 5281 5280 5280 5280 5280 5280 5279 5279 5279 5279 5278
5254 5256 5258 5261 5263 5265 5266 5268 5269 5269 5270 5270 5271 5271 5271 5271 5271 5271 5272 5272 5272 5272 5272 5272 5272 5273 5273 5273 5274 5274 5275 5275 5274 5274 5273 5273 5274 5274 5273 5272 5272 5272 5271